Findlay, OH

1:00 PM EST on December 05, 2019 (GMT -0500)
Findlay

Weather History for KFDY - October, 2019

Change the Weather History Date:

Wednesday, October 30, 2019

  Actual Average Record
Temperature  
Mean Temperature 49 °F -  
Max Temperature 52 °F 57 °F 75 °F (1950)
Min Temperature 46 °F 37 °F 24 °F (1988)
Degree Days  
Heating Degree Days 16    
Moisture  
Dew Point 46 °F    
Average Humidity 89    
Maximum Humidity 96    
Minimum Humidity 80    
Precipitation  
Precipitation 0.81 in - - ()
Sea Level Pressure  
Sea Level Pressure 30.10 in    
Wind  
Wind Speed 10 mph (NNE)    
Max Wind Speed 14 mph    
Max Gust Speed -    
Visibility 7 miles    
Events Rain    
Averages and records for this station are not official NWS values.
T = Trace of Precipitation, MM = Missing Value Source: NWS Daily Summary

Daily Weather History Graph

Daily Weather History Graph

Search for Another Location

Airport or City:

Astronomy

Oct. 30, 2019 Rise Set
Actual Time 8:02 AM EDT 6:33 PM EDT
Civil Twilight 7:34 AM EDT 7:01 PM EDT
Nautical Twilight 7:02 AM EDT 7:33 PM EDT
Astronomical Twilight 6:30 AM EDT 8:05 PM EDT
Moon 10:46 AM EDT (10/30) 8:39 PM EDT (10/30)
Length of Visible Light 11h 27m
Length of Day
10h 30m
Waxing Crescent, 8% of the Moon is Illuminated
Oct 30
Waxing Crescent
Nov 4
First Quarter
Nov 12
Full
Nov 19
Last Quarter
Nov 26
New

Hourly Weather History & Observations

Time (EDT) Temp. Windchill Dew Point Humidity Pressure Visibility Wind Dir Wind Speed Gust Speed Precip Events Conditions
12:39 AM 50.0 °F - 46.0 °F 86% 30.23 in 10.0 mi North 6.9 mph - N/A   Overcast
12:53 AM 50.0 °F - 45.0 °F 83% 30.23 in 10.0 mi North 6.9 mph - N/A   Overcast
1:50 AM 50.0 °F - 44.6 °F 82% 30.22 in 10.0 mi NNE 10.4 mph - N/A   Overcast
1:53 AM 50.0 °F - 45.0 °F 83% 30.22 in 10.0 mi NNE 8.1 mph - N/A   Overcast
2:03 AM 50.0 °F - 45.0 °F 83% 30.23 in 10.0 mi NNE 8.1 mph - N/A   Overcast
2:53 AM 50.0 °F - 44.1 °F 80% 30.23 in 10.0 mi North 8.1 mph - N/A   Overcast
3:53 AM 48.0 °F - 44.1 °F 86% 30.23 in 10.0 mi North 9.2 mph - N/A   Overcast
4:53 AM 48.0 °F - 43.0 °F 83% 30.21 in 10.0 mi NNE 13.8 mph - N/A   Overcast
5:39 AM 48.0 °F - 42.1 °F 80% 30.23 in 10.0 mi NE 10.4 mph - N/A   Overcast
5:53 AM 48.0 °F - 42.1 °F 80% 30.23 in 10.0 mi NE 11.5 mph - N/A   Overcast
6:53 AM 46.9 °F - 43.0 °F 86% 30.22 in 4.0 mi NNE 12.7 mph - N/A   Overcast
7:06 AM 46.9 °F - 44.1 °F 90% 30.22 in 3.0 mi NNE 11.5 mph - N/A   Overcast
7:29 AM 46.0 °F 40.6 °F 44.1 °F 93% 30.23 in 2.5 mi NNE 11.5 mph - N/A   Overcast
7:40 AM 46.0 °F 41.4 °F 44.1 °F 93% 30.23 in 3.0 mi NNE 9.2 mph - N/A   Overcast
7:53 AM 46.9 °F - 44.1 °F 90% 30.22 in 3.0 mi NE 9.2 mph - N/A   Overcast
8:53 AM 46.9 °F - 44.1 °F 90% 30.22 in 4.0 mi NE 12.7 mph - 0.01 in Rain Light Rain
9:53 AM 46.9 °F - 44.1 °F 90% 30.20 in 10.0 mi NE 11.5 mph - 0.01 in   Overcast
10:53 AM 48.0 °F - 44.1 °F 86% 30.18 in 6.0 mi NE 12.7 mph - 0.03 in Rain Light Rain
11:53 AM 48.0 °F - 45.0 °F 89% 30.15 in 3.0 mi ENE 10.4 mph - 0.10 in Rain Rain
12:53 PM 48.0 °F - 46.0 °F 93% 30.10 in 4.0 mi NE 13.8 mph - 0.12 in Rain Rain
1:28 PM 48.9 °F - 46.9 °F 93% 30.08 in 4.0 mi NNE 9.2 mph - 0.09 in Rain Rain
1:53 PM 50.0 °F - 46.9 °F 89% 30.06 in 5.0 mi NNE 11.5 mph - 0.15 in Rain Light Rain
2:53 PM 50.0 °F - 48.0 °F 93% 30.04 in 3.0 mi NE 5.8 mph - 0.11 in Rain Heavy Rain
3:15 PM 50.0 °F - 48.0 °F 93% 30.02 in 6.0 mi NE 9.2 mph - 0.05 in Rain Light Rain
3:53 PM 51.1 °F - 48.0 °F 89% 30.00 in 4.0 mi NE 13.8 mph - 0.11 in Rain Rain
4:39 PM 51.1 °F - 48.0 °F 89% 29.97 in 10.0 mi NE 13.8 mph - 0.03 in Rain Light Rain
4:53 PM 51.1 °F - 48.0 °F 89% 29.96 in 10.0 mi NE 12.7 mph - 0.03 in Rain Light Rain
5:53 PM 51.1 °F - 48.9 °F 92% 29.94 in 10.0 mi NE 12.7 mph - 0.01 in Rain Light Rain
6:53 PM 52.0 °F - 50.0 °F 93% 29.91 in 10.0 mi NE 9.2 mph - 0.03 in Rain Light Rain
7:53 PM 52.0 °F - 50.0 °F 93% 29.89 in 3.0 mi NE 9.2 mph - 0.06 in Rain Rain
8:53 PM 52.0 °F - 50.0 °F 93% 29.87 in 10.0 mi NNE 6.9 mph - 0.01 in   Overcast
9:53 PM 52.0 °F - 50.0 °F 93% 29.87 in 7.0 mi North 8.1 mph - 0.01 in Rain Light Rain
10:53 PM 51.1 °F - 48.9 °F 92% 29.86 in 6.0 mi North 9.2 mph - 0.01 in Rain Light Rain
11:53 PM 50.0 °F - 48.9 °F 96% 29.85 in 2.5 mi North 5.8 mph - 0.01 in Rain Light Rain